Location: Ostrava
(49.8330°N, 18.2830°E)
Time: 16:28:36
(UTC+02:00)

ISS - Visible Passes

Search period start: 13 April 2026 00:00
Search period end: 23 April 2026 00:00
Orbit: 416 x 424 km, 51.6° (Epoch: 13 April)

Date Brightness Start Highest point End Pass type
(mag) Time Alt. Az. Time Alt. Az. Time Alt. Az.
19 Apr -1.1 04:40:49 10° SSE 04:42:24 13° SE 04:44:00 10° ESE visible
21 Apr -2.2 04:41:09 10° SSW 04:44:01 27° SE 04:46:57 10° E visible
22 Apr -1.8 03:55:33 16° SSE 03:56:45 19° SE 03:59:14 10° E visible
